| time (UTC) | temp C | wind direction | speed KPH | gust KPH | rain 1hr cm | rain 24hr cm | rain mn cm | humidity % | barometer mb |
| 20260510164512 | 28 | 98 | 11.3 | 20.9 | 0.00 | 0.00 | 0.00 | 75 | 1012.6 |
| 20260510164002 | 29 | 109 | 8.0 | 22.5 | 0.00 | 0.00 | 0.00 | 74 | 1012.5 |
| 20260510163503 | 29 | 87 | 11.3 | 20.9 | 0.00 | 0.00 | 0.00 | 74 | 1012.5 |
| 20260510163003 | 28 | 113 | 8.0 | 14.5 | 0.00 | 0.00 | 0.00 | 73 | 1012.6 |
| 20260510162601 | 28 | 175 | 4.8 | 14.5 | 0.00 | 0.00 | 0.00 | 76 | 1012.5 |
| 20260510162101 | 28 | 190 | 8.0 | 14.5 | 0.00 | 0.00 | 0.00 | 73 | 1012.4 |
| 20260510161559 | 28 | 139 | 3.2 | 14.5 | 0.00 | 0.00 | 0.00 | 74 | 1012.4 |
| 20260510161059 | 28 | 131 | 4.8 | 16.1 | 0.00 | 0.00 | 0.00 | 74 | 1012.5 |
| 20260510160559 | 28 | 97 | 8.0 | 16.1 | 0.00 | 0.00 | 0.00 | 74 | 1012.5 |
| 20260510160058 | 28 | 134 | 6.4 | 16.1 | 0.00 | 0.00 | 0.00 | 75 | 1012.5 |
| 20260510155601 | 28 | 81 | 6.4 | 12.9 | 0.00 | 0.00 | 0.00 | 76 | 1012.4 |
| 20260510155100 | 28 | 99 | 3.2 | 8.0 | 0.00 | 0.00 | 0.00 | 73 | 1012.5 |
| 20260510154557 | 28 | 141 | 3.2 | 11.3 | 0.00 | 0.00 | 0.00 | 73 | 1012.4 |
| 20260510154056 | 28 | 120 | 4.8 | 12.9 | 0.00 | 0.00 | 0.00 | 73 | 1012.4 |
| 20260510153555 | 28 | 132 | 4.8 | 11.3 | 0.00 | 0.00 | 0.00 | 75 | 1012.3 |
| 20260510153054 | 28 | 172 | 3.2 | 12.9 | 0.00 | 0.00 | 0.00 | 76 | 1012.2 |
| 20260510152559 | 28 | 127 | 4.8 | 12.9 | 0.00 | 0.00 | 0.00 | 76 | 1012.2 |
| 20260510152054 | 28 | 150 | 3.2 | 11.3 | 0.00 | 0.00 | 0.00 | 76 | 1012.2 |
| 20260510151554 | 28 | 121 | 4.8 | 11.3 | 0.00 | 0.00 | 0.00 | 76 | 1012.2 |
| 20260510151053 | 28 | 123 | 4.8 | 12.9 | 0.00 | 0.00 | 0.00 | 76 | 1012.1 |
| 20260510150552 | 28 | 125 | 3.2 | 12.9 | 0.00 | 0.00 | 0.00 | 76 | 1012.1 |
| 20260510150051 | 28 | 135 | 6.4 | 12.9 | 0.00 | 0.00 | 0.00 | 76 | 1011.9 |
| 20260510145550 | 28 | 130 | 4.8 | 11.3 | 0.00 | 0.00 | 0.00 | 77 | 1011.8 |
| 20260510145049 | 27 | 115 | 6.4 | 11.3 | 0.00 | 0.00 | 0.00 | 77 | 1011.6 |
| 20260510144551 | 27 | 142 | 4.8 | 11.3 | 0.00 | 0.00 | 0.00 | 78 | 1011.6 |
| 20260510144049 | 27 | 194 | 1.6 | 8.0 | 0.00 | 0.00 | 0.00 | 78 | 1011.7 |
| 20260510143550 | 27 | 222 | 3.2 | 11.3 | 0.00 | 0.00 | 0.00 | 78 | 1011.6 |
| 20260510143048 | 27 | 101 | 4.8 | 11.3 | 0.00 | 0.00 | 0.00 | 76 | 1011.5 |
| 20260510142551 | 28 | 212 | 3.2 | 12.9 | 0.00 | 0.00 | 0.00 | 77 | 1011.6 |
| 20260510142050 | 27 | 192 | 4.8 | 12.9 | 0.00 | 0.00 | 0.00 | 80 | 1011.5 |
| 20260510141554 | 27 | 179 | 1.6 | 6.4 | 0.00 | 0.00 | 0.00 | 81 | 1011.5 |
| 20260510141044 | 27 | 205 | 3.2 | 6.4 | 0.00 | 0.00 | 0.00 | 83 | 1011.4 |
| 20260510140545 | 26 | 170 | 1.6 | 9.7 | 0.00 | 0.00 | 0.00 | 84 | 1011.5 |
| 20260510140041 | 26 | 227 | 3.2 | 9.7 | 0.00 | 0.08 | 0.00 | 84 | 1011.5 |
| 20260510135541 | 26 | 214 | 3.2 | 9.7 | 0.00 | 0.08 | 0.00 | 84 | 1011.3 |
| 20260510135040 | 26 | 182 | 4.8 | 11.3 | 0.00 | 0.08 | 0.00 | 84 | 1011.4 |
| 20260510134539 | 26 | 205 | 3.2 | 11.3 | 0.00 | 0.08 | 0.00 | 86 | 1011.3 |
| 20260510134038 | 26 | 194 | 3.2 | 11.3 | 0.00 | 0.08 | 0.00 | 86 | 1011.3 |
| 20260510133538 | 26 | 160 | 3.2 | 11.3 | 0.00 | 0.08 | 0.00 | 86 | 1011.4 |
| 20260510133049 | 25 | 195 | 4.8 | 11.3 | 0.00 | 0.08 | 0.00 | 86 | 1011.4 |
| 20260510132537 | 25 | 232 | 1.6 | 8.0 | 0.00 | 0.08 | 0.00 | 88 | 1011.3 |
| 20260510132036 | 25 | 180 | 1.6 | 8.0 | 0.00 | 0.08 | 0.00 | 89 | 1011.3 |
| 20260510131534 | 25 | 199 | 3.2 | 8.0 | 0.00 | 0.08 | 0.00 | 89 | 1011.2 |
| 20260510131034 | 25 | 158 | 3.2 | 11.3 | 0.00 | 0.08 | 0.00 | 90 | 1011.1 |
| 20260510130533 | 25 | 159 | 3.2 | 8.0 | 0.00 | 0.08 | 0.00 | 90 | 1011.0 |
| 20260510130033 | 25 | 152 | 1.6 | 8.0 | 0.00 | 0.36 | 0.00 | 90 | 1011.1 |
| 20260510125533 | 25 | 132 | 1.6 | 8.0 | 0.00 | 0.36 | 0.00 | 90 | 1011.0 |
| 20260510125033 | 25 | 142 | 3.2 | 6.4 | 0.00 | 0.36 | 0.00 | 91 | 1011.0 |
| 20260510124531 | 25 | 146 | 3.2 | 6.4 | 0.00 | 0.36 | 0.00 | 91 | 1011.0 |
| 20260510124031 | 24 | 148 | 1.6 | 8.0 | 0.00 | 0.36 | 0.00 | 92 | 1011.0 |
| 20260510123533 | 24 | 150 | 1.6 | 8.0 | 0.00 | 0.36 | 0.00 | 92 | 1011.0 |
| 20260510123032 | 24 | 150 | 1.6 | 8.0 | 0.00 | 0.36 | 0.00 | 92 | 1010.9 |
| 20260510122532 | 24 | 177 | 1.6 | 4.8 | 0.00 | 0.36 | 0.00 | 92 | 1010.9 |
| 20260510122028 | 23 | 180 | 0.0 | 4.8 | 0.00 | 0.36 | 0.00 | 93 | 1010.9 |
| 20260510121528 | 23 | 202 | 0.0 | 3.2 | 0.00 | 0.36 | 0.00 | 93 | 1010.9 |
| 20260510121029 | 23 | 206 | 0.0 | 6.4 | 0.00 | 0.36 | 0.00 | 93 | 1010.7 |
| 20260510120527 | 23 | 207 | 1.6 | 6.4 | 0.00 | 0.36 | 0.00 | 93 | 1010.7 |
| 20260510120031 | 23 | 159 | 1.6 | 4.8 | 0.00 | 0.71 | 0.00 | 94 | 1010.7 |
| 20260510115529 | 23 | 159 | 0.0 | 4.8 | 0.00 | 0.71 | 0.00 | 94 | 1010.6 |
| 20260510115027 | 23 | 130 | 0.0 | 3.2 | 0.00 | 0.71 | 0.00 | 94 | 1010.6 |
| 20260510114527 | 23 | 130 | 0.0 | 3.2 | 0.00 | 0.71 | 0.00 | 94 | 1010.5 |
| 20260510114030 | 23 | 130 | 1.6 | 3.2 | 0.00 | 0.71 | 0.00 | 93 | 1010.5 |
| 20260510113526 | 23 | 130 | 1.6 | 3.2 | 0.00 | 0.71 | 0.00 | 93 | 1010.4 |
| 20260510113030 | 23 | 130 | 0.0 | 1.6 | 0.00 | 0.71 | 0.00 | 93 | 1010.5 |
| 20260510112527 | 23 | 130 | 0.0 | 3.2 | 0.00 | 0.71 | 0.00 | 93 | 1010.6 |
| 20260510112027 | 23 | 130 | 0.0 | 3.2 | 0.00 | 0.71 | 0.00 | 93 | 1010.6 |
| 20260510111527 | 23 | 130 | 0.0 | 3.2 | 0.00 | 0.71 | 0.00 | 93 | 1010.5 |
| 20260510111026 | 23 | 130 | 0.0 | 1.6 | 0.00 | 0.71 | 0.00 | 93 | 1010.5 |
| 20260510110526 | 23 | 130 | 0.0 | 4.8 | 0.00 | 0.71 | 0.00 | 93 | 1010.5 |
| 20260510110025 | 23 | 130 | 0.0 | 4.8 | 0.00 | 1.27 | 0.00 | 93 | 1010.5 |
| 20260510105525 | 23 | 130 | 0.0 | 3.2 | 0.00 | 1.27 | 0.00 | 93 | 1010.6 |
| 20260510105025 | 23 | 130 | 0.0 | 3.2 | 0.00 | 1.27 | 0.00 | 94 | 1010.6 |
| 20260510104525 | 23 | 130 | 1.6 | 3.2 | 0.00 | 1.27 | 0.00 | 94 | 1010.6 |
| 20260510104025 | 23 | 130 | 0.0 | 3.2 | 0.00 | 1.27 | 0.00 | 93 | 1010.5 |
| 20260510103524 | 23 | 130 | 0.0 | 3.2 | 0.00 | 1.27 | 0.00 | 93 | 1010.4 |
| 20260510103026 | 23 | 130 | 0.0 | 3.2 | 0.00 | 1.27 | 0.00 | 93 | 1010.4 |
| 20260510102524 | 23 | 130 | 1.6 | 3.2 | 0.00 | 1.27 | 0.00 | 94 | 1010.4 |
| 20260510102024 | 23 | 130 | 0.0 | 1.6 | 0.00 | 1.27 | 0.00 | 94 | 1010.3 |
| 20260510101523 | 23 | 130 | 0.0 | 3.2 | 0.00 | 1.27 | 0.00 | 94 | 1010.3 |
| 20260510101023 | 23 | 130 | 1.6 | 3.2 | 0.00 | 1.27 | 0.00 | 94 | 1010.4 |
| 20260510100525 | 23 | 130 | 0.0 | 1.6 | 0.00 | 1.27 | 0.00 | 93 | 1010.4 |
| 20260510100022 | 23 | 130 | 0.0 | 1.6 | 0.00 | 1.32 | 0.00 | 93 | 1010.5 |
| 20260510095522 | 23 | 130 | 0.0 | 3.2 | 0.00 | 1.32 | 0.00 | 93 | 1010.5 |
| 20260510095020 | 23 | 130 | 1.6 | 3.2 | 0.00 | 1.32 | 0.00 | 93 | 1010.4 |
| 20260510094521 | 23 | 130 | 0.0 | 3.2 | 0.00 | 1.32 | 0.00 | 93 | 1010.4 |
| 20260510094021 | 23 | 130 | 0.0 | 1.6 | 0.00 | 1.32 | 0.00 | 93 | 1010.3 |
| 20260510093521 | 23 | 130 | 0.0 | 3.2 | 0.00 | 1.32 | 0.00 | 93 | 1010.4 |
| 20260510093021 | 23 | 130 | 0.0 | 3.2 | 0.00 | 1.32 | 0.00 | 93 | 1010.5 |
| 20260510092520 | 23 | 130 | 0.0 | 1.6 | 0.00 | 1.32 | 0.00 | 92 | 1010.3 |
| 20260510092019 | 23 | 130 | 0.0 | 1.6 | 0.00 | 1.32 | 0.00 | 92 | 1010.2 |
| 20260510091520 | 23 | 130 | 0.0 | 1.6 | 0.00 | 1.32 | 0.00 | 92 | 1010.2 |
| 20260510091025 | 23 | 130 | 0.0 | 3.2 | 0.00 | 1.32 | 0.00 | 92 | 1010.1 |
| 20260510090519 | 23 | 130 | 0.0 | 3.2 | 0.00 | 1.32 | 0.00 | 92 | 1010.1 |
| 20260510090019 | 23 | 130 | 0.0 | 3.2 | 0.00 | 1.32 | 0.00 | 92 | 1010.2 |
| 20260510085518 | 23 | 130 | 0.0 | 3.2 | 0.00 | 1.32 | 0.00 | 92 | 1010.2 |
| 20260510085017 | 23 | 130 | 0.0 | 4.8 | 0.00 | 1.32 | 0.00 | 92 | 1010.2 |
| 20260510084518 | 23 | 130 | 1.6 | 4.8 | 0.00 | 1.32 | 0.00 | 92 | 1010.2 |
| 20260510084021 | 23 | 177 | 1.6 | 4.8 | 0.00 | 1.32 | 0.00 | 92 | 1010.2 |
| 20260510083520 | 23 | 178 | 1.6 | 4.8 | 0.00 | 1.32 | 0.00 | 92 | 1010.2 |
| 20260510083017 | 23 | 180 | 1.6 | 4.8 | 0.00 | 1.32 | 0.00 | 92 | 1010.2 |
| 20260510082518 | 23 | 206 | 0.0 | 6.4 | 0.00 | 1.32 | 0.00 | 92 | 1010.3 |
| 20260510082018 | 23 | 206 | 0.0 | 6.4 | 0.00 | 1.32 | 0.00 | 92 | 1010.3 |
| 20260510081516 | 23 | 205 | 1.6 | 8.0 | 0.00 | 1.32 | 0.00 | 91 | 1010.3 |
| 20260510081016 | 23 | 168 | 0.0 | 8.0 | 0.00 | 1.32 | 0.00 | 91 | 1010.3 |
| 20260510080516 | 24 | 160 | 0.0 | 4.8 | 0.00 | 1.32 | 0.00 | 91 | 1010.4 |
| 20260510080015 | 24 | 194 | 0.0 | 6.4 | 0.00 | 1.32 | 0.00 | 91 | 1010.4 |
| 20260510075515 | 24 | 201 | 0.0 | 4.8 | 0.00 | 1.32 | 0.00 | 91 | 1010.4 |
| 20260510075014 | 24 | 130 | 1.6 | 4.8 | 0.00 | 1.32 | 0.00 | 90 | 1010.4 |
| 20260510074515 | 24 | 187 | 1.6 | 6.4 | 0.00 | 1.32 | 0.00 | 90 | 1010.5 |
| 20260510074019 | 24 | 139 | 1.6 | 4.8 | 0.00 | 1.32 | 0.00 | 90 | 1010.6 |
| 20260510073514 | 24 | 139 | 1.6 | 4.8 | 0.00 | 1.32 | 0.00 | 90 | 1010.5 |
| 20260510073014 | 24 | 147 | 0.0 | 8.0 | 0.00 | 1.32 | 0.00 | 90 | 1010.5 |
| 20260510072513 | 24 | 147 | 1.6 | 8.0 | 0.00 | 1.32 | 0.00 | 89 | 1010.5 |
| 20260510072015 | 24 | 173 | 0.0 | 8.0 | 0.00 | 1.32 | 0.00 | 89 | 1010.5 |
| 20260510071514 | 24 | 173 | 1.6 | 8.0 | 0.00 | 1.32 | 0.00 | 89 | 1010.4 |
| 20260510071013 | 24 | 186 | 0.0 | 4.8 | 0.00 | 1.32 | 0.00 | 89 | 1010.5 |
| 20260510070514 | 24 | 153 | 1.6 | 6.4 | 0.00 | 1.32 | 0.00 | 89 | 1010.5 |
| 20260510070012 | 24 | 119 | 0.0 | 9.7 | 0.00 | 1.32 | 0.00 | 89 | 1010.7 |
| 20260510065512 | 24 | 199 | 1.6 | 9.7 | 0.00 | 1.32 | 0.00 | 88 | 1010.6 |
| 20260510065012 | 24 | 173 | 1.6 | 9.7 | 0.00 | 1.32 | 0.00 | 88 | 1010.6 |
| 20260510064511 | 24 | 145 | 3.2 | 8.0 | 0.00 | 1.32 | 0.00 | 88 | 1010.6 |
| 20260510064011 | 24 | 153 | 3.2 | 12.9 | 0.00 | 1.32 | 0.00 | 88 | 1010.8 |
| 20260510063511 | 24 | 155 | 3.2 | 12.9 | 0.00 | 1.32 | 0.00 | 88 | 1010.9 |
| 20260510063011 | 24 | 139 | 4.8 | 12.9 | 0.00 | 1.32 | 0.00 | 88 | 1010.9 |
| 20260510062511 | 24 | 134 | 3.2 | 12.9 | 0.00 | 1.32 | 0.00 | 88 | 1010.8 |
| 20260510062011 | 24 | 142 | 4.8 | 12.9 | 0.00 | 1.32 | 0.00 | 87 | 1010.8 |
| 20260510061510 | 24 | 149 | 3.2 | 9.7 | 0.00 | 1.32 | 0.00 | 87 | 1010.8 |
| 20260510061010 | 24 | 157 | 4.8 | 9.7 | 0.00 | 1.32 | 0.00 | 87 | 1010.8 |
| 20260510060510 | 24 | 139 | 3.2 | 9.7 | 0.00 | 1.32 | 0.00 | 87 | 1010.8 |
| 20260510060018 | 24 | 123 | 3.2 | 12.9 | 0.00 | 1.32 | 0.00 | 87 | 1010.9 |
| 20260510055508 | 24 | 120 | 4.8 | 12.9 | 0.00 | 1.32 | 0.00 | 87 | 1010.8 |
| 20260510055007 | 24 | 136 | 3.2 | 8.0 | 0.00 | 1.32 | 0.00 | 86 | 1010.7 |
| 20260510054507 | 24 | 141 | 3.2 | 9.7 | 0.00 | 1.32 | 0.00 | 86 | 1010.8 |
| 20260510054007 | 24 | 142 | 3.2 | 8.0 | 0.00 | 1.32 | 0.00 | 86 | 1010.7 |
| 20260510053509 | 24 | 141 | 3.2 | 8.0 | 0.00 | 1.32 | 0.00 | 86 | 1010.6 |
| 20260510053011 | 24 | 140 | 3.2 | 6.4 | 0.00 | 1.32 | 0.00 | 86 | 1010.6 |
| 20260510052504 | 24 | 183 | 1.6 | 6.4 | 0.00 | 1.32 | 0.00 | 86 | 1010.5 |
| 20260510052003 | 24 | 183 | 1.6 | 6.4 | 0.00 | 1.32 | 0.00 | 85 | 1010.5 |
| 20260510051503 | 24 | 186 | 1.6 | 11.3 | 0.00 | 1.32 | 0.00 | 85 | 1010.2 |
| 20260510051002 | 24 | 119 | 4.8 | 11.3 | 0.00 | 1.32 | 0.00 | 85 | 1010.2 |
| 20260510050503 | 24 | 127 | 1.6 | 9.7 | 0.00 | 1.32 | 0.00 | 84 | 1010.2 |
| 20260510050100 | 24 | 180 | 3.2 | 12.9 | 0.00 | 1.32 | 1.32 | 84 | 1010.1 |
| 20260510045600 | 24 | 149 | 3.2 | 12.9 | 0.00 | 1.32 | 1.32 | 83 | 1010.1 |
| 20260510045100 | 24 | 207 | 3.2 | 11.3 | 0.00 | 1.32 | 1.32 | 83 | 1009.9 |
| 20260510044601 | 24 | 182 | 3.2 | 11.3 | 0.00 | 1.32 | 1.32 | 83 | 1010.0 |
| 20260510044100 | 24 | 224 | 3.2 | 8.0 | 0.00 | 1.32 | 1.32 | 83 | 1010.0 |
| 20260510043603 | 24 | 208 | 1.6 | 6.4 | 0.00 | 1.32 | 1.32 | 83 | 1010.1 |
| 20260510043109 | 24 | 162 | 1.6 | 9.7 | 0.00 | 1.32 | 1.32 | 82 | 1010.1 |
| 20260510042559 | 24 | 155 | 1.6 | 9.7 | 0.00 | 1.32 | 1.32 | 82 | 1010.1 |
| 20260510042059 | 24 | 167 | 1.6 | 8.0 | 0.00 | 1.32 | 1.32 | 82 | 1010.1 |
| 20260510041600 | 25 | 166 | 1.6 | 8.0 | 0.00 | 1.32 | 1.32 | 82 | 1010.2 |
| 20260510041058 | 25 | 165 | 3.2 | 6.4 | 0.00 | 1.32 | 1.32 | 81 | 1010.2 |
| 20260510040558 | 25 | 126 | 3.2 | 11.3 | 0.00 | 1.32 | 1.32 | 81 | 1010.3 |
| 20260510040109 | 25 | 131 | 3.2 | 14.5 | 0.00 | 1.32 | 1.32 | 80 | 1010.3 |
| 20260510035557 | 25 | 138 | 6.4 | 14.5 | 0.00 | 1.32 | 1.32 | 80 | 1010.2 |
| 20260510035057 | 25 | 137 | 3.2 | 16.1 | 0.00 | 1.32 | 1.32 | 80 | 1010.1 |
| 20260510034604 | 25 | 113 | 6.4 | 16.1 | 0.00 | 1.32 | 1.32 | 79 | 1010.1 |
| 20260510034057 | 25 | 169 | 6.4 | 14.5 | 0.00 | 1.32 | 1.32 | 78 | 1010.1 |
| 20260510033557 | 25 | 131 | 4.8 | 16.1 | 0.00 | 1.32 | 1.32 | 78 | 1010.2 |
| 20260510033056 | 25 | 138 | 4.8 | 16.1 | 0.00 | 1.32 | 1.32 | 77 | 1010.0 |
| 20260510032556 | 25 | 112 | 4.8 | 16.1 | 0.00 | 1.32 | 1.32 | 76 | 1010.0 |
| 20260510032057 | 25 | 112 | 9.7 | 16.1 | 0.00 | 1.32 | 1.32 | 76 | 1010.0 |
| 20260510031559 | 25 | 105 | 6.4 | 14.5 | 0.00 | 1.32 | 1.32 | 75 | 1009.9 |
| 20260510031055 | 25 | 177 | 6.4 | 12.9 | 0.00 | 1.32 | 1.32 | 75 | 1009.8 |
| 20260510030555 | 25 | 153 | 4.8 | 14.5 | 0.00 | 1.32 | 1.32 | 74 | 1009.7 |
| 20260510030055 | 25 | 142 | 6.4 | 14.5 | 0.00 | 1.32 | 1.32 | 74 | 1009.5 |
| 20260510025555 | 25 | 140 | 6.4 | 12.9 | 0.00 | 1.32 | 1.32 | 74 | 1009.6 |
| 20260510025056 | 25 | 101 | 3.2 | 16.1 | 0.00 | 1.32 | 1.32 | 74 | 1009.6 |
| 20260510024555 | 25 | 119 | 8.0 | 16.1 | 0.00 | 1.32 | 1.32 | 74 | 1009.3 |
| 20260510024054 | 25 | 127 | 6.4 | 14.5 | 0.00 | 1.32 | 1.32 | 73 | 1009.2 |
| 20260510023555 | 25 | 167 | 6.4 | 14.5 | 0.00 | 1.32 | 1.32 | 73 | 1009.2 |
| 20260510023054 | 25 | 143 | 4.8 | 14.5 | 0.00 | 1.32 | 1.32 | 73 | 1009.3 |
| 20260510022554 | 25 | 134 | 4.8 | 14.5 | 0.00 | 1.32 | 1.32 | 72 | 1009.0 |
| 20260510022054 | 25 | 138 | 4.8 | 12.9 | 0.00 | 1.32 | 1.32 | 71 | 1008.9 |
| 20260510021557 | 26 | 136 | 6.4 | 16.1 | 0.00 | 1.32 | 1.32 | 71 | 1009.0 |
| 20260510021053 | 26 | 108 | 8.0 | 16.1 | 0.00 | 1.32 | 1.32 | 70 | 1009.0 |
| 20260510020554 | 26 | 159 | 6.4 | 16.1 | 0.00 | 1.32 | 1.32 | 69 | 1008.9 |
| 20260510020052 | 26 | 139 | 6.4 | 20.9 | 0.00 | 1.32 | 1.32 | 68 | 1008.7 |
| 20260510015552 | 26 | 115 | 4.8 | 16.1 | 0.00 | 1.32 | 1.32 | 66 | 1008.8 |
| 20260510015055 | 26 | 118 | 6.4 | 16.1 | 0.00 | 1.32 | 1.32 | 65 | 1008.8 |
| 20260510014554 | 26 | 142 | 6.4 | 16.1 | 0.00 | 1.32 | 1.32 | 65 | 1008.6 |
| 20260510014052 | 26 | 134 | 4.8 | 14.5 | 0.00 | 1.32 | 1.32 | 66 | 1008.4 |
| 20260510013556 | 26 | 173 | 4.8 | 11.3 | 0.00 | 1.32 | 1.32 | 65 | 1008.5 |
| 20260510013051 | 26 | 151 | 4.8 | 9.7 | 0.00 | 1.32 | 1.32 | 65 | 1008.4 |
| 20260510012551 | 27 | 194 | 4.8 | 11.3 | 0.00 | 1.32 | 1.32 | 64 | 1008.3 |
| 20260510012051 | 27 | 150 | 4.8 | 12.9 | 0.00 | 1.32 | 1.32 | 63 | 1008.3 |
| 20260510011551 | 27 | 120 | 3.2 | 12.9 | 0.00 | 1.32 | 1.32 | 62 | 1008.3 |
| 20260510011051 | 27 | 161 | 3.2 | 14.5 | 0.00 | 1.32 | 1.32 | 61 | 1008.3 |
| 20260510010550 | 27 | 159 | 6.4 | 17.7 | 0.00 | 1.32 | 1.32 | 61 | 1008.3 |
| 20260510010050 | 27 | 140 | 9.7 | 17.7 | 0.00 | 1.32 | 1.32 | 59 | 1008.5 |
| 20260510005549 | 27 | 151 | 9.7 | 17.7 | 0.00 | 1.32 | 1.32 | 58 | 1008.4 |
| 20260510005049 | 28 | 125 | 8.0 | 16.1 | 0.00 | 1.32 | 1.32 | 57 | 1008.4 |
| 20260510004649 | 28 | 133 | 6.4 | 16.1 | 0.00 | 1.32 | 1.32 | 58 | 1008.3 |
| 20260510004053 | 28 | 114 | 3.2 | 17.7 | 0.00 | 1.32 | 1.32 | 56 | 1008.4 |
| 20260510003550 | 28 | 202 | 6.4 | 17.7 | 0.00 | 1.32 | 1.32 | 55 | 1008.4 |
| 20260510003049 | 28 | 158 | 6.4 | 17.7 | 0.00 | 1.32 | 1.32 | 56 | 1008.4 |
| 20260510002551 | 28 | 130 | 6.4 | 19.3 | 0.00 | 1.32 | 1.32 | 56 | 1008.5 |
| 20260510002048 | 28 | 121 | 8.0 | 19.3 | 0.00 | 1.32 | 1.32 | 56 | 1008.4 |
| 20260510001552 | 28 | 181 | 8.0 | 20.9 | 0.00 | 1.32 | 1.32 | 56 | 1008.4 |
| 20260510001049 | 28 | 128 | 11.3 | 20.9 | 0.00 | 1.32 | 1.32 | 55 | 1008.4 |
| 20260510000548 | 28 | 167 | 6.4 | 16.1 | 0.00 | 1.32 | 1.32 | 55 | 1008.4 |
| 20260510000046 | 28 | 117 | 4.8 | 17.7 | 0.00 | 1.32 | 1.32 | 56 | 1008.3 |
| 20260509235546 | 28 | 201 | 9.7 | 22.5 | 0.00 | 1.32 | 1.32 | 56 | 1008.4 |
| 20260509235046 | 28 | 154 | 11.3 | 22.5 | 0.00 | 1.32 | 1.32 | 56 | 1008.5 |
| 20260509234547 | 29 | 140 | 9.7 | 17.7 | 0.00 | 1.32 | 1.32 | 56 | 1008.5 |
| 20260509234046 | 29 | 136 | 8.0 | 22.5 | 0.00 | 1.32 | 1.32 | 56 | 1008.4 |
| 20260509233548 | 29 | 150 | 9.7 | 22.5 | 0.00 | 1.32 | 1.32 | 53 | 1008.3 |
| 20260509233051 | 29 | 120 | 4.8 | 20.9 | 0.00 | 1.32 | 1.32 | 54 | 1008.3 |
| 20260509232545 | 29 | 159 | 11.3 | 20.9 | 0.00 | 1.32 | 1.32 | 53 | 1008.4 |
| 20260509232045 | 30 | 128 | 11.3 | 19.3 | 0.00 | 1.32 | 1.32 | 52 | 1008.5 |
| 20260509231546 | 30 | 118 | 8.0 | 24.1 | 0.00 | 1.32 | 1.32 | 53 | 1008.6 |
| 20260509231044 | 30 | 142 | 9.7 | 24.1 | 0.00 | 1.32 | 1.32 | 53 | 1008.5 |
| 20260509230548 | 30 | 175 | 6.4 | 22.5 | 0.00 | 1.32 | 1.32 | 53 | 1008.6 |
| 20260509230044 | 30 | 120 | 9.7 | 22.5 | 0.00 | 1.32 | 1.32 | 53 | 1008.6 |
| 20260509225544 | 30 | 151 | 12.9 | 22.5 | 0.00 | 1.32 | 1.32 | 51 | 1008.5 |
| 20260509225047 | 30 | 153 | 8.0 | 30.6 | 0.00 | 1.32 | 1.32 | 52 | 1008.5 |
| 20260509224555 | 30 | 191 | 12.9 | 30.6 | 0.00 | 1.32 | 1.32 | 54 | 1008.4 |
| 20260509224043 | 30 | 120 | 9.7 | 27.4 | 0.00 | 1.32 | 1.32 | 53 | 1008.4 |
| 20260509223544 | 30 | 148 | 8.0 | 27.4 | 0.00 | 1.32 | 1.32 | 53 | 1008.5 |
| 20260509223047 | 30 | 211 | 8.0 | 24.1 | 0.00 | 1.32 | 1.32 | 53 | 1008.4 |
| 20260509222544 | 31 | 207 | 9.7 | 24.1 | 0.00 | 1.32 | 1.32 | 52 | 1008.5 |
| 20260509222043 | 31 | 175 | 8.0 | 22.5 | 0.00 | 1.32 | 1.32 | 52 | 1008.5 |
| 20260509221559 | 31 | 128 | 11.3 | 22.5 | 0.00 | 1.32 | 1.32 | 51 | 1008.5 |
| 20260509221043 | 31 | 145 | 9.7 | 22.5 | 0.00 | 1.32 | 1.32 | 52 | 1008.5 |
| 20260509220543 | 31 | 103 | 12.9 | 22.5 | 0.00 | 1.32 | 1.32 | 51 | 1008.5 |
| 20260509220043 | 31 | 130 | 12.9 | 22.5 | 0.00 | 1.32 | 1.32 | 50 | 1008.5 |
| 20260509215542 | 31 | 169 | 9.7 | 19.3 | 0.00 | 1.32 | 1.32 | 50 | 1008.3 |
| 20260509215042 | 31 | 121 | 6.4 | 19.3 | 0.00 | 1.32 | 1.32 | 51 | 1008.1 |
| 20260509214541 | 32 | 136 | 8.0 | 20.9 | 0.00 | 1.32 | 1.32 | 48 | 1008.3 |
| 20260509214043 | 32 | 173 | 8.0 | 19.3 | 0.00 | 1.32 | 1.32 | 47 | 1008.3 |
| 20260509213542 | 32 | 110 | 8.0 | 16.1 | 0.00 | 1.32 | 1.32 | 47 | 1008.3 |
| 20260509213041 | 32 | 138 | 8.0 | 16.1 | 0.00 | 1.32 | 1.32 | 48 | 1008.5 |
| 20260509212539 | 31 | 171 | 9.7 | 17.7 | 0.00 | 1.32 | 1.32 | 48 | 1008.4 |
| 20260509212040 | 31 | 121 | 6.4 | 20.9 | 0.00 | 1.32 | 1.32 | 48 | 1008.5 |
| 20260509211542 | 31 | 125 | 11.3 | 19.3 | 0.00 | 1.32 | 1.32 | 51 | 1008.5 |
| 20260509211041 | 31 | 190 | 6.4 | 17.7 | 0.00 | 1.32 | 1.32 | 52 | 1008.4 |
| 20260509210540 | 31 | 86 | 9.7 | 22.5 | 0.00 | 1.32 | 1.32 | 50 | 1008.3 |
| 20260509210041 | 31 | 151 | 9.7 | 22.5 | 0.00 | 1.32 | 1.32 | 50 | 1008.3 |
| 20260509205538 | 31 | 146 | 8.0 | 17.7 | 0.00 | 1.32 | 1.32 | 51 | 1008.5 |
| 20260509205039 | 31 | 117 | 8.0 | 17.7 | 0.00 | 1.32 | 1.32 | 52 | 1008.5 |
| 20260509204539 | 31 | 84 | 6.4 | 17.7 | 0.00 | 1.32 | 1.32 | 52 | 1008.5 |
| 20260509204040 | 31 | 137 | 6.4 | 17.7 | 0.00 | 1.32 | 1.32 | 50 | 1008.5 |
| 20260509203539 | 31 | 146 | 6.4 | 17.7 | 0.00 | 1.32 | 1.32 | 51 | 1008.5 |
| 20260509203038 | 31 | 53 | 4.8 | 16.1 | 0.00 | 1.32 | 1.32 | 51 | 1008.6 |
| 20260509202538 | 31 | 113 | 9.7 | 17.7 | 0.00 | 1.32 | 1.32 | 52 | 1008.6 |
| 20260509202039 | 31 | 78 | 9.7 | 14.5 | 0.00 | 1.32 | 1.32 | 52 | 1008.6 |
| 20260509201547 | 31 | 109 | 4.8 | 17.7 | 0.00 | 1.32 | 1.32 | 52 | 1008.7 |
| 20260509201037 | 31 | 30 | 6.4 | 17.7 | 0.00 | 1.32 | 1.32 | 52 | 1008.8 |
| 20260509200538 | 32 | 121 | 8.0 | 17.7 | 0.00 | 1.32 | 1.32 | 52 | 1008.7 |
| 20260509200043 | 32 | 105 | 6.4 | 14.5 | 0.00 | 1.32 | 1.32 | 51 | 1008.7 |
| 20260509195537 | 32 | 119 | 6.4 | 12.9 | 0.00 | 1.32 | 1.32 | 50 | 1008.7 |
| 20260509195037 | 32 | 129 | 4.8 | 14.5 | 0.00 | 1.32 | 1.32 | 51 | 1008.8 |
| 20260509194536 | 32 | 184 | 6.4 | 14.5 | 0.00 | 1.32 | 1.32 | 51 | 1008.9 |
| 20260509194037 | 32 | 135 | 6.4 | 14.5 | 0.00 | 1.32 | 1.32 | 52 | 1009.0 |
| 20260509193536 | 32 | 78 | 6.4 | 11.3 | 0.00 | 1.32 | 1.32 | 52 | 1008.9 |
| 20260509193036 | 31 | 21 | 4.8 | 11.3 | 0.00 | 1.32 | 1.32 | 52 | 1009.0 |
| 20260509192535 | 32 | 119 | 6.4 | 12.9 | 0.00 | 1.32 | 1.32 | 53 | 1009.0 |
| 20260509192036 | 32 | 5 | 4.8 | 12.9 | 0.00 | 1.32 | 1.32 | 53 | 1008.9 |
| 20260509191536 | 32 | 121 | 6.4 | 12.9 | 0.00 | 1.32 | 1.32 | 51 | 1008.9 |
| 20260509191037 | 33 | 46 | 6.4 | 12.9 | 0.00 | 1.32 | 1.32 | 50 | 1008.9 |
| 20260509190533 | 32 | 261 | 0.0 | 6.4 | 0.00 | 1.32 | 1.32 | 48 | 1008.9 |
| 20260509190032 | 32 | 261 | 1.6 | 6.4 | 0.00 | 1.32 | 1.32 | 47 | 1008.9 |
| 20260509185532 | 32 | 258 | 1.6 | 11.3 | 0.00 | 1.32 | 1.32 | 49 | 1008.9 |
| 20260509185032 | 32 | 258 | 3.2 | 11.3 | 0.00 | 1.32 | 1.32 | 48 | 1009.0 |
| 20260509184532 | 32 | 249 | 1.6 | 8.0 | 0.00 | 1.32 | 1.32 | 47 | 1009.0 |
| 20260509184030 | 32 | 235 | 1.6 | 8.0 | 0.00 | 1.32 | 1.32 | 48 | 1008.9 |
| 20260509183530 | 32 | 194 | 3.2 | 6.4 | 0.00 | 1.32 | 1.32 | 50 | 1009.0 |
| 20260509183030 | 32 | 241 | 1.6 | 6.4 | 0.00 | 1.32 | 1.32 | 48 | 1009.0 |
| 20260509182529 | 32 | 232 | 1.6 | 11.3 | 0.00 | 1.32 | 1.32 | 52 | 1009.0 |
| 20260509182028 | 32 | 250 | 1.6 | 4.8 | 0.00 | 1.32 | 1.32 | 51 | 1008.9 |
| 20260509181527 | 31 | 235 | 1.6 | 11.3 | 0.00 | 1.32 | 1.32 | 52 | 1009.0 |
| 20260509181027 | 31 | 234 | 3.2 | 11.3 | 0.00 | 1.32 | 1.32 | 52 | 1009.1 |
| 20260509180526 | 31 | 260 | 3.2 | 14.5 | 0.00 | 1.32 | 1.32 | 51 | 1009.3 |
| 20260509180025 | 31 | 334 | 4.8 | 14.5 | 0.00 | 1.32 | 1.32 | 53 | 1009.3 |
| 20260509175524 | 31 | 244 | 3.2 | 8.0 | 0.00 | 1.32 | 1.32 | 53 | 1009.4 |
| 20260509175023 | 31 | 282 | 1.6 | 6.4 | 0.00 | 1.32 | 1.32 | 53 | 1009.4 |
| 20260509174522 | 31 | 263 | 1.6 | 11.3 | 0.00 | 1.32 | 1.32 | 54 | 1009.4 |
| 20260509174021 | 30 | 279 | 3.2 | 11.3 | 0.00 | 1.32 | 1.32 | 55 | 1009.4 |
| 20260509173520 | 30 | 263 | 1.6 | 14.5 | 0.00 | 1.32 | 1.32 | 57 | 1009.4 |
| 20260509173019 | 30 | 330 | 4.8 | 14.5 | 0.00 | 1.32 | 1.32 | 58 | 1009.5 |
| 20260509172521 | 30 | 275 | 1.6 | 9.7 | 0.00 | 1.32 | 1.32 | 56 | 1009.6 |
| 20260509172018 | 29 | 273 | 4.8 | 11.3 | 0.00 | 1.32 | 1.32 | 57 | 1009.7 |
| 20260509171527 | 29 | 256 | 3.2 | 11.3 | 0.00 | 1.32 | 1.32 | 58 | 1009.8 |
| 20260509171018 | 29 | 246 | 3.2 | 6.4 | 0.00 | 1.32 | 1.32 | 57 | 1009.7 |
| 20260509170521 | 29 | 269 | 1.6 | 8.0 | 0.00 | 1.32 | 1.32 | 58 | 1009.7 |
| 20260509170026 | 29 | 273 | 4.8 | 8.0 | 0.00 | 1.32 | 1.32 | 59 | 1009.8 |
| 20260509165515 | 29 | 190 | 1.6 | 6.4 | 0.00 | 1.32 | 1.32 | 60 | 1009.9 |
| 20260509165014 | 29 | 342 | 3.2 | 6.4 | 0.00 | 1.32 | 1.32 | 60 | 1009.9 |